Weather History for Ruston, LA

Change the Weather History Date:

Wednesday, February 13, 2013

  Actual Average Record
Temperature  
Mean Temperature 44 °F -  
Max Temperature 52 °F 57 °F 82 °F (1949)
Min Temperature 34 °F 35 °F 17 °F (1963)
Degree Days  
Heating Degree Days 22    
Moisture  
Dew Point 39 °F    
Average Humidity 84    
Maximum Humidity 100    
Minimum Humidity 52    
Precipitation  
Precipitation 0.01 in - - ()
Sea Level Pressure  
Sea Level Pressure 30.06 in    
Wind  
Wind Speed 5 mph (WNW)    
Max Wind Speed 12 mph    
Max Gust Speed 17 mph    
Visibility 10 miles    
Events Rain    
Averages and records for this station are not official NWS values.
T = Trace of Precipitation, MM = Missing Value Source: NWS Daily Summary

Daily Weather History Graph

Daily Weather History Graph

Search for Another Location

Airport:

Trip Planner

Search our weather history database for the weather conditions in past years. The results will help you decide how hot, cold, wet, or windy it might be!

Date:

Astronomy

Feb. 13, 2013 Rise Set
Actual Time 6:54 AM CST 5:54 PM CST
Civil Twilight 6:29 AM CST 6:19 PM CST
Nautical Twilight 6:00 AM CST 6:48 PM CST
Astronomical Twilight 5:32 AM CST 7:17 PM CST
Moon 8:40 AM CST (2/13) 9:40 PM CST (2/13)
Length of Visible Light 11h 50m
Length of Day
10h 59m
Waxing Crescent, 14% of the Moon is Illuminated
Feb 13
Waxing Crescent
Feb 17
First Quarter
Feb 25
Full
Mar 4
Last Quarter
Mar 11
New

Hourly Weather History & Observations

Time (CST) Temp. Windchill Dew Point Humidity Pressure Visibility Wind Dir Wind Speed Gust Speed Precip Events Conditions
12:15 AM 45.1 °F 43.7 °F 45.1 °F 100% 29.91 in 10.0 mi WNW 3.5 mph - N/A   Overcast
12:35 AM 45.5 °F 44.2 °F 45.5 °F 100% 29.91 in 10.0 mi West 3.5 mph - N/A   Overcast
12:55 AM 45.7 °F 44.4 °F 45.7 °F 100% 29.91 in 10.0 mi West 3.5 mph - N/A   Overcast
1:15 AM 46.0 °F 43.1 °F 46.0 °F 100% 29.92 in 10.0 mi WNW 5.8 mph - N/A   Overcast
1:35 AM 45.9 °F 42.9 °F 45.9 °F 100% 29.92 in 4.0 mi WNW 5.8 mph - N/A Rain Rain
1:55 AM 45.9 °F 41.2 °F 45.9 °F 100% 29.93 in 10.0 mi WNW 9.2 mph - N/A   Overcast
2:15 AM 46.0 °F 43.1 °F 46.0 °F 100% 29.93 in 10.0 mi WNW 5.8 mph - N/A   Overcast
2:35 AM 46.4 °F 42.4 °F 45.3 °F 96% 29.95 in 10.0 mi West 8.1 mph - N/A   Overcast
2:55 AM 46.2 °F 43.3 °F 44.6 °F 94% 29.96 in 10.0 mi West 5.8 mph - N/A   Overcast
3:15 AM 46.2 °F 40.8 °F 42.8 °F 88% 29.96 in 10.0 mi WNW 11.5 mph 17.3 mph N/A   Overcast
3:35 AM 45.9 °F 42.3 °F 42.4 °F 88% 29.97 in 10.0 mi WNW 6.9 mph - N/A   Overcast
3:55 AM 45.7 °F 42.0 °F 42.3 °F 88% 29.97 in 10.0 mi WNW 6.9 mph - N/A   Overcast
4:15 AM 45.7 °F 43.4 °F 42.3 °F 88% 29.98 in 10.0 mi WNW 4.6 mph - N/A   Overcast
4:35 AM 45.5 °F 41.3 °F 42.3 °F 88% 30.00 in 10.0 mi West 8.1 mph - N/A   Overcast
4:55 AM 45.5 °F 43.2 °F 41.2 °F 85% 30.01 in 10.0 mi WNW 4.6 mph - N/A   Overcast
5:15 AM 45.1 °F 42.0 °F 41.2 °F 86% 30.02 in 10.0 mi West 5.8 mph - N/A   Overcast
5:55 AM 44.8 °F 42.4 °F 40.8 °F 86% 30.01 in 10.0 mi NW 4.6 mph - N/A   Overcast
6:15 AM 44.6 °F 41.4 °F 40.8 °F 87% 30.02 in 10.0 mi WNW 5.8 mph - N/A   Overcast
6:35 AM 44.6 °F 40.2 °F 41.0 °F 87% 30.03 in 10.0 mi West 8.1 mph - N/A   Overcast
6:55 AM 44.4 °F 41.2 °F 40.3 °F 85% 30.03 in 10.0 mi WNW 5.8 mph - N/A   Overcast
7:15 AM 44.2 °F 41.0 °F 40.1 °F 85% 30.05 in 10.0 mi NW 5.8 mph - N/A   Overcast
7:35 AM 43.9 °F 39.9 °F 41.0 °F 90% 30.06 in 5.0 mi WNW 6.9 mph - N/A   Drizzle
7:55 AM 43.3 °F 41.7 °F 42.4 °F 97% 30.07 in 7.0 mi WNW 3.5 mph - N/A   Drizzle
8:15 AM 43.3 °F - 43.3 °F 100% 30.08 in 10.0 mi Calm Calm - N/A Rain Light Rain
8:35 AM 43.0 °F 40.3 °F 43.0 °F 100% 30.10 in 4.0 mi WNW 4.6 mph - 0.01 in Rain Heavy Rain
8:55 AM 42.3 °F 37.9 °F 42.3 °F 100% 30.11 in 4.0 mi WNW 6.9 mph - 0.01 in Rain Rain
9:15 AM 42.8 °F 39.3 °F 42.8 °F 100% 30.12 in 10.0 mi NW 5.8 mph - N/A   Overcast
9:35 AM 43.0 °F 39.5 °F 41.9 °F 96% 30.12 in 10.0 mi NW 5.8 mph - N/A   Overcast
9:55 AM 43.9 °F 40.5 °F 41.4 °F 91% 30.13 in 10.0 mi NW 5.8 mph - N/A   Overcast
10:15 AM 45.3 °F 41.1 °F 40.5 °F 83% 30.13 in 10.0 mi NNW 8.1 mph - N/A   Overcast
10:55 AM 45.9 °F 41.7 °F 39.6 °F 79% 30.13 in 10.0 mi NNW 8.1 mph - N/A   Overcast
11:15 AM 46.8 °F - 38.8 °F 74% 30.12 in 10.0 mi NW 9.2 mph - N/A   Scattered Clouds
11:35 AM 47.3 °F - 38.1 °F 70% 30.12 in 10.0 mi NNW 8.1 mph - N/A   Mostly Cloudy
11:55 AM 46.6 °F - 37.2 °F 70% 30.11 in 10.0 mi NNW 6.9 mph - N/A   Overcast
12:15 PM 48.4 °F - 36.9 °F 64% 30.11 in 10.0 mi NNW 6.9 mph - N/A   Mostly Cloudy
12:35 PM 48.7 °F - 35.8 °F 61% 30.10 in 10.0 mi NNW 9.2 mph - N/A   Overcast
12:55 PM 50.0 °F - 36.1 °F 59% 30.09 in 10.0 mi North 6.9 mph - N/A   Overcast
1:15 PM 49.1 °F - 35.6 °F 60% 30.09 in 10.0 mi North 10.4 mph - N/A   Overcast
1:35 PM 50.7 °F - 35.4 °F 56% 30.08 in 10.0 mi NNW 8.1 mph - N/A   Mostly Cloudy
1:55 PM 52.0 °F - 35.1 °F 53% 30.08 in 10.0 mi NW 9.2 mph - N/A   Mostly Cloudy
2:15 PM 50.5 °F - 34.9 °F 55% 30.07 in 10.0 mi NNW 11.5 mph - N/A   Overcast
2:35 PM 51.3 °F - 34.3 °F 52% 30.06 in 10.0 mi North 6.9 mph - N/A   Overcast
2:55 PM 51.1 °F - 35.6 °F 55% 30.06 in 10.0 mi North 6.9 mph - N/A   Overcast
3:15 PM 50.0 °F - 35.1 °F 57% 30.07 in 10.0 mi WNW 4.6 mph - N/A   Mostly Cloudy
3:35 PM 51.8 °F - 34.7 °F 52% 30.07 in 10.0 mi West 4.6 mph - N/A   Mostly Cloudy
3:55 PM 51.3 °F - 35.1 °F 54% 30.07 in 10.0 mi WNW 5.8 mph - N/A   Overcast
4:15 PM 51.3 °F - 35.1 °F 54% 30.07 in 10.0 mi NNW 4.6 mph - N/A   Mostly Cloudy
4:35 PM 51.1 °F - 36.0 °F 56% 30.07 in 10.0 mi West 6.9 mph - N/A   Mostly Cloudy
4:55 PM 51.4 °F - 35.1 °F 54% 30.07 in 10.0 mi Calm Calm - N/A   Overcast
5:15 PM 50.9 °F - 36.3 °F 57% 30.08 in 10.0 mi NW 4.6 mph - N/A   Overcast
5:35 PM 49.6 °F - 36.3 °F 60% 30.08 in 10.0 mi Calm Calm - N/A   Scattered Clouds
5:55 PM 46.9 °F - 38.1 °F 71% 30.08 in 10.0 mi Calm Calm - N/A   Scattered Clouds
6:15 PM 43.7 °F - 40.3 °F 88% 30.08 in 10.0 mi Calm Calm - N/A   Clear
6:55 PM 40.5 °F - 40.5 °F 100% 30.09 in 10.0 mi Calm Calm - N/A   Clear
7:15 PM 39.9 °F 37.8 °F 39.9 °F 100% 30.09 in 10.0 mi SW 3.5 mph - N/A   Clear
7:35 PM 39.7 °F 37.6 °F 39.7 °F 100% 30.09 in 10.0 mi SW 3.5 mph - N/A   Clear
7:55 PM 40.1 °F - 40.1 °F 100% 30.09 in 10.0 mi Calm Calm - N/A   Clear
8:15 PM 41.0 °F - 40.8 °F 99% 30.10 in 10.0 mi Calm Calm - N/A   Clear
8:35 PM 39.7 °F 37.6 °F 39.6 °F 99% 30.10 in 10.0 mi WSW 3.5 mph - N/A   Clear
8:55 PM 38.5 °F - 38.5 °F 100% 30.11 in 10.0 mi Calm Calm - N/A   Clear
9:15 PM 36.9 °F - 36.9 °F 100% 30.11 in 7.0 mi Calm Calm - N/A   Clear
9:35 PM 36.3 °F - 36.3 °F 100% 30.12 in 10.0 mi Calm Calm - N/A   Clear
9:55 PM 36.1 °F - 36.1 °F 100% 30.12 in 10.0 mi Calm Calm - N/A   Clear
10:15 PM 35.8 °F - 35.8 °F 100% 30.13 in 10.0 mi Calm Calm - N/A   Clear
10:35 PM 36.3 °F - 36.3 °F 100% 30.13 in 10.0 mi Calm Calm - N/A   Clear
10:55 PM 35.6 °F - 35.6 °F 100% 30.13 in 10.0 mi Calm Calm - N/A   Clear
11:15 PM 35.1 °F - 35.1 °F 100% 30.13 in 10.0 mi Calm Calm - N/A   Clear
11:35 PM 36.0 °F - 36.0 °F 100% 30.13 in 10.0 mi Calm Calm - N/A   Clear
11:55 PM 34.5 °F - 34.5 °F 100% 30.13 in 10.0 mi Calm Calm - N/A   Clear